Regional Weather Roundup
Issued by NWS Midland/Odessa, TX

Home | Current Version | Previous Version | Text Only | Print | Product List | Glossary On
Versions: 1 2 3 4 5 6 7 8 9 10 11 12 13 14 15 16 17 18 19 20 21 22 23 24 25 26 27 28 29 30 31 32 33 34 35 36 37 38 39 40 41 42 43 44 45 46 47 48 49 50
000
ASUS44 KMAF 280810
RWRMAF
MIDLAND AREA WEATHER ROUNDUP
NATIONAL WEATHER SERVICE MIDLAND TX
300 AM CDT TUE JUL 28 2015

...IN SOUTHWEST TEXAS AND SOUTHEAST NEW MEXICO...

CITY           SKY/WX    TMP DP  RH WIND       PRES   REMARKS
ALPINE         CLEAR     67  59  75 S6        30.13F
ANDREWS        FAIR      81  58  45 S13       29.98S
ARTESIA        PTCLDY    79  59  50 SE10      29.97S
BIG SPRING     CLEAR     80  58  46 SE10      29.97S
CARLSBAD       PTCLDY    81  60  48 SE9       29.94F
DRYDEN           N/A     84  65  52 SE10G16   29.93S
FORT STOCKTON  LGT RAIN  81  60  48 SE16      29.96S
GUAD PASS      PTCLDY    75  55  49 SW9       30.13F
HOBBS          CLEAR     77  55  47 S9        30.01S
MARFA          CLEAR     64  61  88 N6        30.12S
MIDLAND AIRPK  CLEAR     83  59  43 S8        29.96F
MIDLAND INTL   CLEAR     81  60  48 S8        29.96S
ODESSA         CLEAR     83  58  42 S10       29.97S
PECOS          CLEAR     81  59  46 SE9       29.92F
PRESIDIO       FAIR      82  56  41 MISG      29.96S
SEMINOLE       CLEAR     77  56  49 S3        30.00S
SNYDER         CLEAR     79  63  58 S7        29.96S
WINK           CLEAR     83  59  44 S10       29.94S
$$
...OTHER STATIONS IN TEXAS...

CITY           SKY/WX    TMP DP  RH WIND       PRES   REMARKS
ABILENE        CLEAR     80  65  59 S12       29.94S
AMARILLO       CLEAR     78  62  57 S20       29.99F
AUSTIN         CLEAR     74  74 100 S3        29.95F
BROWNSVILLE    PTCLDY    81  78  91 S8        29.91S
CORPUS CHRISTI PTCLDY    81  77  88 SE8       29.92F
DALLAS FTW     CLEAR     84  67  56 S10       29.90F
DEL RIO        CLEAR     83  73  72 E13G22    29.89S
EL PASO        MOCLDY    85  55  35 S13       30.01R
HOUSTON INT    PTCLDY    78  76  93 CALM      29.95F
LUBBOCK        PTCLDY    75  63  66 SE9       29.97F
SAN ANGELO     CLEAR     82  64  54 S14       29.93S
SAN ANTONIO    MOCLDY    79  73  82 S10       29.96F
WACO           CLEAR     82  71  69 S13       29.93F
WICHITA FALLS  NOT AVBL
$$
...OTHER LOCATIONS IN NEW MEXICO...

CITY           SKY/WX    TMP DP  RH WIND       PRES   REMARKS
ALAMAGORDO     MOCLDY    77  54  44 CALM      30.00F
ALBUQUERQUE    MOCLDY    79  49  34 SE8       30.08F
CANNON AFB     PTCLDY    71  57  59 SW9       30.04F
CLOVIS         PTCLDY    70  61  73 S8        30.04F
HOLLOMAN AFB   MOCLDY    81  53  37 SE5       29.98F
ROSWELL        PTCLDY    81  56  42 E5        29.99S
RUIDOSO          N/A    N/A N/A N/A MISG        N/A
SANTA FE       MOCLDY    67  51  56 CALM      30.16S
TRUTH OR CONSE MOCLDY    77  55  46 NW7       30.04F
TUCUMCARI      CLOUDY    84  49  29 SW14G24   29.92F
$$


USA.gov is the U.S. government's official web portal to all federal, state and local government web resources and services.